Date String (YYYY-MM-DD hh:mm:ss) UTC,Instrument flags,Ambient pressure (hPa),Sample flow (lpm),Bypass flow (lpm),Sample temperature (°C),Ambient temperature (°C),ASC tube jacket temperature (°C),LED temperature (°C),Box temperature (°C),Sample RH (%),Span deviation,Mass concentration (μg/m³),Mass concentration (μg/m³),Mass concentration (μg/m³)
DateTimeUTC,F1_M11,P_M11,Q1_M11,Q2_M11,T1_M11,T2_M11,T3_M11,T4_M11,T5_M11,U1_M11,ZSPAN_M11,X0_M11,X2_M11,X1_M11
2022-12-26 11:00:00,,0830.7,5.02,0.00,21.6,21.5,00.0,30.3,23.5,19.4,0000.0,0003.98,0002.21,0002.03
2022-12-26 11:01:00,,0830.7,5.03,0.00,21.7,22.0,00.0,30.4,23.7,19.2,0000.0,0003.93,0002.19,0002.01
2022-12-26 11:02:00,,0830.7,4.98,0.00,21.7,21.8,00.0,30.4,23.8,19.1,0000.0,0003.97,0002.19,0002.01
2022-12-26 11:03:00,,0830.8,4.98,0.00,21.8,21.5,00.0,30.5,23.7,19.0,0000.0,0004.06,0002.25,0002.03
2022-12-26 11:04:00,,0830.8,5.03,0.00,21.8,21.3,00.0,30.5,23.7,19.0,0000.0,0004.01,0002.23,0002.04
2022-12-26 11:05:00,,0830.8,5.02,0.00,21.8,21.2,00.0,30.5,23.7,18.9,0000.0,0004.02,0002.23,0002.04
2022-12-26 11:06:00,,0830.8,4.99,0.00,21.8,21.1,00.0,30.5,23.7,18.9,0000.0,0003.57,0002.23,0002.04
2022-12-26 11:07:00,,0830.7,4.97,0.00,21.8,21.0,00.0,30.6,23.7,18.9,0000.0,0002.87,0002.22,0002.02
2022-12-26 11:08:00,,0830.6,5.00,0.00,21.8,20.9,00.0,30.6,23.7,18.8,0000.0,0002.85,0002.21,0002.01
2022-12-26 11:09:00,,0830.6,5.02,0.00,21.8,20.9,00.0,30.6,23.7,18.9,0000.0,0002.94,0002.21,0001.98
2022-12-26 11:10:00,,0830.6,5.03,0.00,21.8,20.8,00.0,30.6,23.7,18.9,0000.0,0002.93,0002.19,0001.96
2022-12-26 11:11:00,,0830.6,4.96,0.00,21.8,20.6,00.0,30.6,23.6,18.9,0000.0,0002.92,0002.18,0001.95
2022-12-26 11:12:00,,0830.6,4.98,0.00,21.8,20.4,00.0,30.6,23.4,18.9,0000.0,0002.95,0002.17,0001.94
2022-12-26 11:13:00,,0830.6,5.02,0.00,21.7,20.1,00.0,30.6,23.3,19.0,0000.0,0003.73,0002.14,0001.92
2022-12-26 11:14:00,,0830.6,5.02,0.00,21.7,20.0,00.0,30.6,23.3,19.0,0000.0,0003.65,0002.09,0001.90
2022-12-26 11:15:00,,0830.7,5.02,0.00,21.6,19.8,00.0,30.6,23.2,19.1,0000.0,0003.62,0002.08,0001.89
2022-12-26 11:16:00,,0830.8,4.99,0.00,21.6,19.7,00.0,30.6,23.1,19.1,0000.0,0003.66,0002.10,0001.88
2022-12-26 11:17:00,,0830.8,4.98,0.00,21.5,19.5,00.0,30.6,23.1,19.2,0000.0,0003.66,0002.10,0001.87
2022-12-26 11:18:00,,0830.8,4.99,0.00,21.5,19.5,00.0,30.5,23.0,19.2,0000.0,0003.68,0002.10,0001.86
2022-12-26 11:19:00,,0830.7,5.03,0.00,21.4,19.5,00.0,30.5,23.0,19.3,0000.0,0003.69,0002.10,0001.86
2022-12-26 11:20:00,,0830.7,5.01,0.00,21.4,19.5,00.0,30.5,23.0,19.3,0000.0,0003.66,0002.11,0001.86
2022-12-26 11:21:00,,0830.8,4.99,0.00,21.4,19.4,00.0,30.4,22.9,19.3,0000.0,0003.69,0002.12,0001.87
2022-12-26 11:22:00,,0830.8,4.97,0.00,21.3,19.4,00.0,30.4,22.9,19.4,0000.0,0003.74,0002.11,0001.87
2022-12-26 11:23:00,,0830.8,4.98,0.00,21.3,19.3,00.0,30.4,22.8,19.4,0000.0,0003.76,0002.13,0001.88
2022-12-26 11:24:00,,0830.8,5.02,0.00,21.2,19.3,00.0,30.4,22.7,19.4,0000.0,0003.19,0002.14,0001.87
2022-12-26 11:25:00,,0830.8,5.02,0.00,21.2,19.2,00.0,30.3,22.7,19.4,0000.0,0002.93,0002.14,0001.88
2022-12-26 11:26:00,,0830.8,5.01,0.00,21.2,20.1,00.0,30.2,22.9,19.4,0000.0,0002.91,0002.14,0001.88
2022-12-26 11:27:00,,0830.8,4.95,0.00,21.3,21.3,00.0,30.2,23.2,19.3,0000.0,0002.86,0002.11,0001.89
2022-12-26 11:28:00,,0830.6,5.02,0.00,21.4,21.3,00.0,30.2,23.3,19.2,0000.0,0002.82,0002.09,0001.89
2022-12-26 11:29:00,,0830.6,5.03,0.00,21.4,20.8,00.0,30.3,23.2,19.2,0000.0,0002.88,0002.12,0001.90
2022-12-26 11:30:00,,0830.6,5.01,0.00,21.4,20.4,00.0,30.3,23.1,19.1,0000.0,0002.94,0002.15,0001.92
2022-12-26 11:31:00,,0830.7,4.97,0.00,21.4,20.2,00.0,30.3,23.1,19.1,0000.0,0003.01,0002.17,0001.94
2022-12-26 11:32:00,,0830.7,5.00,0.00,21.3,20.0,00.0,30.3,23.0,19.2,0000.0,0003.07,0002.19,0001.94
2022-12-26 11:33:00,,0830.8,5.02,0.00,21.3,19.8,00.0,30.3,22.9,19.2,0000.0,0003.09,0002.21,0001.94
2022-12-26 11:34:00,,0830.7,5.04,0.00,21.3,19.7,00.0,30.3,22.9,19.2,0000.0,0003.10,0002.22,0001.96
2022-12-26 11:35:00,,0830.8,5.00,0.00,21.2,19.6,00.0,30.3,22.8,19.3,0000.0,0003.10,0002.24,0001.97
2022-12-26 11:36:00,,0830.7,4.97,0.00,21.2,19.5,00.0,30.3,22.7,19.3,0000.0,0003.12,0002.26,0001.99
2022-12-26 11:37:00,,0830.8,4.99,0.00,21.2,19.4,00.0,30.2,22.7,19.4,0000.0,0003.13,0002.26,0001.98
2022-12-26 11:38:00,,0830.7,5.01,0.00,21.2,19.5,00.0,30.2,22.8,19.4,0000.0,0003.17,0002.23,0001.95
2022-12-26 11:39:00,,0830.7,5.02,0.00,21.2,19.6,00.0,30.2,22.8,19.4,0000.0,0003.31,0002.26,0001.94
2022-12-26 11:40:00,,0830.8,5.03,0.00,21.2,19.7,00.0,30.2,22.9,19.3,0000.0,0003.22,0002.21,0001.91
2022-12-26 11:41:00,,0830.8,4.97,0.00,21.2,19.7,00.0,30.2,22.9,19.3,0000.0,0003.13,0002.19,0001.91
2022-12-26 11:42:00,,0830.8,4.98,0.00,21.2,19.8,00.0,30.2,22.9,19.3,0000.0,0003.18,0002.19,0001.92
2022-12-26 11:43:00,,0830.7,5.01,0.00,21.2,19.8,00.0,30.2,23.0,19.3,0000.0,0003.14,0002.18,0001.91
2022-12-26 11:44:00,,0830.6,5.03,0.00,21.2,19.9,00.0,30.2,23.0,19.3,0000.0,0003.17,0002.16,0001.92
2022-12-26 11:45:00,,0830.6,5.02,0.00,21.2,19.9,00.0,30.2,23.0,19.2,0000.0,0003.41,0002.17,0001.92
2022-12-26 11:46:00,,0830.7,4.99,0.00,21.2,19.9,00.0,30.2,23.0,19.2,0000.0,0003.35,0002.14,0001.91
2022-12-26 11:47:00,,0830.6,4.97,0.00,21.3,20.0,00.0,30.2,23.1,19.1,0000.0,0003.30,0002.11,0001.89
2022-12-26 11:48:00,,0830.6,5.03,0.00,21.3,20.0,00.0,30.2,23.1,19.1,0000.0,0003.34,0002.13,0001.90
2022-12-26 11:49:00,,0830.6,5.02,0.00,21.3,20.0,00.0,30.2,23.0,19.1,0000.0,0003.25,0002.13,0001.92
2022-12-26 11:50:00,,0830.6,5.01,0.00,21.2,19.8,00.0,30.2,22.9,19.2,0000.0,0003.09,0002.10,0001.93
2022-12-26 11:51:00,,0830.6,4.98,0.00,21.2,19.6,00.0,30.2,22.8,19.2,0000.0,0003.14,0002.13,0001.95
2022-12-26 11:52:00,,0830.6,4.96,0.00,21.2,19.7,00.0,30.1,22.8,19.3,0000.0,0003.23,0002.17,0001.96
2022-12-26 11:53:00,,0830.6,4.99,0.00,21.3,20.7,00.0,30.1,23.1,19.2,0000.0,0003.27,0002.20,0001.96
2022-12-26 11:54:00,,0830.6,5.03,0.00,21.4,21.5,00.0,30.1,23.3,19.1,0000.0,0003.18,0002.20,0001.97
2022-12-26 11:55:00,,0830.6,5.01,0.00,21.4,21.2,00.0,30.1,23.4,19.0,0000.0,0003.15,0002.21,0001.98
2022-12-26 11:56:00,,0830.6,4.98,0.00,21.4,20.8,00.0,30.2,23.2,19.0,0000.0,0002.84,0002.23,0002.00
2022-12-26 11:57:00,,0830.6,4.98,0.00,21.4,20.4,00.0,30.2,23.2,19.0,0000.0,0002.82,0002.23,0002.00
2022-12-26 11:58:00,,0830.6,5.02,0.00,21.4,20.2,00.0,30.2,23.1,19.0,0000.0,0002.88,0002.26,0002.02
2022-12-26 11:59:00,,0830.6,5.01,0.00,21.4,20.0,00.0,30.2,23.0,19.0,0000.0,0002.93,0002.26,0002.02
